Regional Weather Roundup
Issued by NWS Charleston, SC

Current Version | Previous Version | Text Only | Print | Product List | Glossary Off
Versions: 1 2 3 4 5 6 7 8 9 10 11 12 13 14 15 16 17 18 19 20 21 22 23 24 25 26 27 28 29 30 31 32 33 34 35 36 37 38 39 40 41 42 43 44 45 46 47 48 49 50

987
ASUS42 KCHS 131111
RWRCHS

REGIONAL WEATHER ROUNDUP
NATIONAL WEATHER SERVICE CHARLESTON SC
600 AM EST WED DEC 13 2017

NOTE: "FAIR" INDICATES FEW OR NO CLOUDS BELOW 12,000 FEET WITH NO
SIGNIFICANT WEATHER AND/OR OBSTRUCTIONS TO VISIBILITY.

NOT ALL STATIONS ARE QUALITY CONTROLLED. USE DATA WITH CAUTION...
ESPECIALLY DEWPOINT OBSERVATIONS.

SCZ027-030-031-034>040-042>050-131200-
...SOUTHEAST SOUTH CAROLINA...

CITY           SKY/WX    TMP DP  RH WIND       PRES   REMARKS
N CHARLESTON   CLEAR     35  25  66 W7        29.99R WCI  29
WATERFRONT PRK   N/A     39  27  62 W5        29.82R WCI  36
JOHNS ISLAND   FAIR      34  25  69 W6        29.99R WCI  29
PINOPOLIS        N/A     39  28  65 NW12      29.90R WCI  32
MONCKS CORNER  FAIR      32  21  64 CALM      29.99R
SUMMERVILLE    FAIR      34  25  69 NW3       30.00R
BEAUFORT MCAS  CLEAR     38  24  57 W10       30.01R WCI  31
BEAUFORT ARPT  FAIR      37  25  60 NW14      30.01R WCI  29
HILTON HEAD IS NOT AVBL
WALTERBORO     SUNNY     32  23  69 W3        30.01R
ALLENDALE      FAIR      34  21  60 CALM      30.00R

...SOUTHERN MIDLANDS AND PEE DEE...

CITY           SKY/WX    TMP DP  RH WIND       PRES   REMARKS
GEORGETOWN     FAIR      32  19  59 NW6       29.98R WCI  26
KINGSTREE      FAIR      30  19  64 CALM      29.98R
ORANGEBURG     CLEAR     32  20  61 NW3       29.99R
BARNWELL         N/A     34  19  55 W5        30.00R WCI  30
AIKEN          FAIR      28  18  64 W6        30.01R WCI  22
MANNING        FAIR      30  23  74 MISG      29.99R
COLUMBIA       CLEAR     32  21  64 W3        29.98R
SUMTER         CLEAR     31  11  42 NW6       29.96R WCI  25
FLORENCE       CLEAR     26  20  77 W3        29.98R
MYRTLE BEACH   CLEAR     32  20  61 NW6       29.98R WCI  26
N MYRTLE BEACH CLEAR     32  17  54 NW3       29.95R

$$

GAZ063-065-086>088-099>101-113>116-118-119-134>141-150-131200-
...SOUTHEAST GEORGIA...

CITY           SKY/WX    TMP DP  RH WIND       PRES   REMARKS
SAVANNAH ARPT  CLEAR     37  24  59 NW8       30.02R WCI  31
HUNTER AAF     CLEAR     37  25  60 NW9       29.99R WCI  31
FORT STEWART   CLEAR     38  20  48 NW7       30.01R WCI  33
STATESBORO     CLEAR     35  15  43 NW7       30.02R WCI  29
SYLVANIA       SUNNY     35  22  58 NW9       30.02R WCI  28
CLAXTON        FAIR      37  22  53 W7        30.03R WCI  32

...CSRA...CENTRAL AND FAR SOUTHEAST GEORGIA...

CITY           SKY/WX    TMP DP  RH WIND       PRES   REMARKS
THOMSON        CLEAR     31  11  44 NW7       30.06R WCI  24
AUGUSTA-BUSH   CLEAR     33  14  45 NW5       30.01R WCI  29
AUGUSTA-DANIEL PTCLDY    34  13  41 W8        30.00R WCI  27
SWAINSBORO     FAIR      34  21  60 NW8       30.03S WCI  27
VIDALIA        CLEAR     36  25  64 NW5       30.04R WCI  32
EASTMAN        FAIR      35  12  39 NW5       30.08S WCI  31
HAZLEHURST     FAIR      38  12  34 NW3       30.04R
ALMA           PTCLDY    39  24  55 NW12      30.04R WCI  32
WAYCROSS       PTCLDY    38  25  58 N9        30.04R WCI  32
JESUP          NOT AVBL
BAXLEY         FAIR      36  23  60 NW8       30.04R WCI  29
BRUNSWICK      PTCLDY    37  28  70 NW5       30.03R WCI  34
SAINT SIMONS   CLEAR     41  29  62 NW7       30.02R

$$

SCZ027-028-034-036>038-045-046-048>050-GAZ119-141-131200-
...LAKE AND SUPPLEMENTAL COASTAL OBSERVATIONS...

STATION/POSITION TIME  TEMP    WIND        PRES    WAVE   SWELL
                       AIR SEA DIR/SP/G            HT/PER HT/PER/DIR
                 (UTC) (F)     (DEG/KT/KT) (MB)    (FT/S) (FT/S/D)
WINYAH BAY       0945   35     300/  3     1014.0
LAKE MURRAY      1020   33     290/  2/  4 1013.9
ACE BASIN NERRS  0945   37     270/  2     1015.0
FORT PULASKI     1036   39 54  320/ 12/ 15 1016.3R
SAPELO ISLAND    NOT AVBL

$$

ANZ835-935-AMZ111-154-330-350-352-354-370-450-454-472-131200-
...C-MAN AND BUOY OBSERVATIONS...

STATION/POSITION TIME  TEMP    WIND        PRES    WAVE   SWELL
                       AIR SEA DIR/SP/G            HT/PER HT/PER/DIR
                 (UTC) (F)     (DEG/KT/KT) (MB)    (FT/S) (FT/S/D)
BUOY 41004       1050   47 74  320/ 17/ 23 1014.2R   6/ 6
BUOY 41008       1050   46 60  320/ 23/ 29 1015.2R   4/ 5
FOLLY BEACH CMAN 1000   39     310/  7/ 11 1014.9R
CAPERS NEARSHORE 1008   39 56  330/ 16/ 21 1013.8R
FRIPP NEARSHORE  1008   41 57  300/ 17/ 29 1014.5R


STATION/POSITION TIME  TEMP    WIND        PRES    WAVE   SWELL
                       AIR SEA DIR/SP/G            HT/PER HT/PER/DIR
                 (UTC) (F)     (DEG/KT/KT) (MB)    (FT/S) (FT/S/D)
5E ST. MARYS GA  1030      62                N/A     4/ 4
FRYING PAN BUOY  1050   40 62  330/ 21/ 27 1013.5R   7/ 6
BUOY 41025       1050   37 74  310/ 29/ 41 1011.6R   9/ 6
CAPE LOOKOUT NC  1000          320/ 20/ 27 1012.6R
BUOY 41002       0950   61 75  310/ 27/ 33 1007.1   14/11   7/290/11
BUOY 41010       NOT AVBL
ST AUGUSTINE FL  1100   45 60  300/  5/  6 1017.8R


$$




USA.gov is the U.S. government's official web portal to all federal, state and local government web resources and services.